Location: Wien
(48.2082°N, 16.3738°E)
Time: 01:12:41
(UTC+01:00)

MOZHAYETS 4 - Visible Passes

Search period start: 22 March 2019 00:00
Search period end: 01 April 2019 01:00
Orbit: 662 x 680 km, 98.0° (Epoch: 21 March)

Date Brightness Start Highest point End Pass type
(mag) Time Alt. Az. Time Alt. Az. Time Alt. Az.
22 Mar 10.4 01:51:46 14° N 01:51:46 14° N 01:52:27 10° N visible
23 Mar 10.6 00:46:54 13° NNE 00:46:54 13° NNE 00:47:40 10° NNE visible
23 Mar 10.3 02:25:08 12° NNW 02:25:08 12° NNW 02:25:32 10° NNW visible
24 Mar 10.3 01:20:16 17° N 01:20:16 17° N 01:21:23 10° N visible
25 Mar 10.8 00:15:24 10° NE 00:15:24 10° NE 00:15:33 10° NNE visible
25 Mar 10.1 01:53:38 17° N 01:53:38 17° N 01:54:45 10° NNW visible
26 Mar 10.5 00:48:45 16° NNE 00:48:45 16° NNE 00:50:01 10° NNE visible
26 Mar 10.1 02:26:59 15° NNW 02:26:59 15° NNW 02:27:47 10° NNW visible
27 Mar 10.1 01:22:07 20° N 01:22:07 20° N 01:23:42 10° N visible
27 Mar 10.2 03:00:21 10° NW 03:00:21 10° NW 03:00:26 10° NW visible
28 Mar 10.7 00:17:15 12° NE 00:17:15 12° NE 00:18:00 10° NNE visible
28 Mar 9.8 01:55:29 21° NNW 01:55:29 21° NNW 01:57:02 10° NNW visible
29 Mar 10.3 00:50:37 18° NNE 00:50:37 18° NNE 00:52:22 10° N visible
29 Mar 9.9 02:28:51 18° NNW 02:28:51 18° NNW 02:30:04 10° NNW visible
30 Mar 9.8 01:23:59 24° NNE 01:23:59 24° NNE 01:26:01 10° N visible
30 Mar 10.1 03:02:12 12° NW 03:02:12 12° NW 03:02:41 10° NW visible
31 Mar 10.5 00:19:07 13° NE 00:19:07 13° NE 00:20:27 10° NNE visible
31 Mar 9.6 01:57:21 26° NNW 01:57:21 26° NNW 01:59:20 10° NNW visible
